sat.trackr.live / text

‹ back to catalog

STARLINK-5432

NORAD 54848 · 2022-177AE

PAYLOAD ACTIVE UNKNOWN

§ Identity

Operator
Country
US
Launch date
2022-12-28
Launch site
AFETR
Launch vehicle
Mass (kg)
RCS (m²)

Purposes: comms

External: N2YO · Heavens-Above · Gunter

§ Orbital elements

Epoch: 2026-09-20T19:54:18.397440Z

Period
94.27 min
Inclination
43.0029°
Eccentricity
0.0001761
Mean motion
15.27578396 rev/d
Perigee alt
481.8 km
Apogee alt
484.3 km
Semi-major
6,861.2 km
B*
-4.4126e-7
RAAN
99.6295°
Arg perigee
255.5722°
Mean anomaly
104.4934°
Rev number
20,693

§ Raw data

STARLINK-54321 54848U 22177AE  26263.82937960 -.00000274  00000+0 -44126-6 0  99982 54848  43.0029  99.6295 0001761 255.5722 104.4934 15.27578396206930

JSON: /api/v1/satellites/54848 · /tle

For live sub-satellite position, see the globe view (requires WebGL).

§ Visibility from observer

Set your observer location to see the next 7 days of passes ≥ 10°. The values pass through the URL so the page stays shareable.

No JS? Fill the form by hand. The geolocation button needs JavaScript.